N0NPO Weather Reports


time (UTC)temp
F
wind
direction
speed
knots
gust
knots
rain 1hr
in
rain 24hr
in
rain mn
in
humidity
%
barometer
mb
20260507124726 37 35 0.0 1.7 0.00 0.00 0.00 1 1014.8
20260507124222 36 85 1.7 1.7 0.00 0.00 0.00 1 1014.6
20260507123721 34 29 0.0 3.5 0.00 0.00 0.00 1 1014.5
20260507123218 34 24 3.5 5.2 0.00 0.00 0.00 1 1014.5
20260507122713 36 54 2.6 4.3 0.00 0.00 0.00 1 1014.3
20260507122209 34 17 4.3 4.3 0.00 0.00 0.00 1 1014.4
20260507121705 34 32 4.3 7.8 0.00 0.00 0.00 1 1014.2
20260507121201 35 79 2.6 3.5 0.00 0.00 0.00 1 1014.1
20260507120657 34 90 2.6 2.6 0.00 0.00 0.00 1 1014.2
20260507120154 34 57 2.6 4.3 0.00 0.00 0.00 1 1013.9
20260507115650 33 126 0.9 1.7 0.00 0.00 0.00 1 1013.9
20260507115146 33 45 3.5 4.3 0.00 0.00 0.00 1 1013.8
20260507114643 32 58 1.7 3.5 0.00 0.00 0.00 1 1013.8
20260507114140 31 81 2.6 4.3 0.00 0.00 0.00 1 1013.8
20260507113637 31 76 2.6 3.5 0.00 0.00 0.00 1 1013.7
20260507113134 31 64 2.6 4.3 0.00 0.00 0.00 1 1013.5
20260507112632 32 45 2.6 2.6 0.00 0.00 0.00 1 1013.7
20260507112128 32 90 2.6 3.5 0.00 0.00 0.00 1 1013.8
20260507111626 32 57 3.5 6.1 0.00 0.00 0.00 1 1013.7
20260507111122 33 46 2.6 7.0 0.00 0.00 0.00 1 1013.8
20260507110618 33 58 3.5 5.2 0.00 0.00 0.00 1 1013.7
20260507110115 33 72 2.6 3.5 0.00 0.00 0.00 1 1013.8
20260507105612 33 85 3.5 4.3 0.00 0.00 0.00 1 1013.8
20260507105108 34 84 3.5 5.2 0.00 0.00 0.00 1 1013.6
20260507104606 34 90 3.5 4.3 0.00 0.00 0.00 1 1013.7
20260507104102 35 95 3.5 4.3 0.00 0.00 0.00 1 1013.8
20260507103558 35 93 3.5 4.3 0.00 0.00 0.00 1 1013.8
20260507103055 35 98 4.3 5.2 0.00 0.00 0.00 1 1013.7
20260507102551 35 93 2.6 3.5 0.00 0.00 0.00 1 1013.8
20260507102047 35 90 3.5 5.2 0.00 0.00 0.00 1 1013.7
20260507101543 35 76 2.6 4.3 0.00 0.00 0.00 1 1013.7
20260507101039 35 81 2.6 3.5 0.00 0.00 0.00 1 1013.6
20260507100537 35 88 3.5 5.2 0.00 0.00 0.00 1 1013.6
20260507100035 35 84 4.3 4.3 0.00 0.00 0.00 1 1013.6
20260507095533 35 80 3.5 6.1 0.00 0.00 0.00 1 1013.7
20260507095029 35 80 4.3 5.2 0.00 0.00 0.00 1 1013.6
20260507094525 35 85 5.2 6.1 0.00 0.00 0.00 1 1013.6
20260507094022 35 94 3.5 6.1 0.00 0.00 0.00 1 1013.7
20260507093520 35 79 5.2 7.0 0.00 0.00 0.00 1 1013.7
20260507093018 35 99 4.3 5.2 0.00 0.00 0.00 1 1013.6
20260507092514 35 90 4.3 6.1 0.00 0.00 0.00 1 1013.6
20260507092011 35 90 5.2 5.2 0.00 0.00 0.00 1 1013.8
20260507091508 35 97 4.3 7.0 0.00 0.00 0.00 1 1013.7
20260507091004 35 98 4.3 4.3 0.00 0.00 0.00 1 1013.8
20260507090500 35 106 4.3 7.0 0.00 0.00 0.00 1 1013.7
20260507085956 35 99 4.3 4.3 0.00 0.00 0.00 1 1013.9
20260507085454 35 97 4.3 6.1 0.00 0.00 0.00 1 1013.9
20260507084950 35 100 3.5 6.1 0.00 0.00 0.00 1 1014.0
20260507084447 35 96 6.1 6.1 0.00 0.00 0.00 1 1013.9
20260507083944 35 103 4.3 6.1 0.00 0.00 0.00 1 1013.9
20260507083440 35 90 3.5 6.1 0.00 0.00 0.00 1 1013.9
20260507082937 35 99 7.0 7.0 0.00 0.00 0.00 1 1014.0
20260507082433 35 98 4.3 7.8 0.00 0.00 0.00 1 1014.0
20260507081930 35 92 4.3 7.0 0.00 0.00 0.00 1 1013.9
20260507081426 35 88 5.2 7.0 0.00 0.00 0.00 1 1014.1
20260507080923 35 92 5.2 7.0 0.00 0.00 0.00 1 1014.1
20260507080419 35 97 4.3 7.0 0.00 0.00 0.00 1 1014.1
20260507075915 34 94 4.3 5.2 0.00 0.00 0.00 1 1014.2
20260507075411 35 103 5.2 6.1 0.00 0.00 0.00 1 1014.2
20260507074908 35 90 4.3 6.1 0.00 0.00 0.00 1 1014.2
20260507074404 35 95 4.3 7.0 0.00 0.00 0.00 1 1014.2
20260507073902 35 96 5.2 5.2 0.00 0.00 0.00 1 1014.4
20260507073358 35 92 4.3 5.2 0.00 0.00 0.00 1 1014.4
20260507072856 35 85 6.1 7.0 0.00 0.00 0.00 1 1014.3
20260507072353 35 85 5.2 6.1 0.00 0.00 0.00 1 1014.5
20260507071850 37 74 6.1 6.1 0.00 0.00 0.00 1 1014.5
20260507071348 38 95 5.2 7.0 0.00 0.00 0.00 1 1014.5
20260507070843 38 86 4.3 5.2 0.00 0.00 0.00 1 1014.3
20260507070341 38 75 3.5 5.2 0.00 0.00 0.00 1 1014.3
20260507065838 39 73 4.3 6.1 0.00 0.00 0.00 1 1014.5
20260507065334 38 90 3.5 5.2 0.00 0.00 0.00 1 1014.6
20260507064831 38 78 5.2 6.1 0.00 0.00 0.00 1 1014.6
20260507064330 39 90 3.5 7.0 0.00 0.00 0.00 1 1014.3
20260507063827 40 92 4.3 6.1 0.00 0.00 0.00 1 1014.3
20260507063324 40 95 3.5 4.3 0.00 0.00 0.00 1 1014.3
20260507062821 41 90 3.5 7.0 0.00 0.00 0.00 1 1014.3
20260507062318 41 88 3.5 5.2 0.00 0.00 0.00 1 1014.4
20260507061816 42 88 4.3 4.3 0.00 0.00 0.00 1 1014.4
20260507061314 43 87 2.6 3.5 0.00 0.00 0.00 1 1014.4
20260507060812 43 109 4.3 5.2 0.00 0.00 0.00 1 1014.5
20260507060308 44 105 3.5 4.3 0.00 0.00 0.00 1 1014.6
20260507055805 43 93 2.6 2.6 0.00 0.00 0.00 1 1014.6
20260507055300 44 112 1.7 2.6 0.00 0.00 0.00 1 1014.8
20260507054756 44 129 2.6 2.6 0.00 0.00 0.00 1 1014.6
20260507054253 44 105 0.9 2.6 0.00 0.00 0.00 1 1014.8
20260507053750 44 110 1.7 2.6 0.00 0.00 0.00 1 1014.8
20260507053248 44 107 1.7 2.6 0.00 0.00 0.00 1 1014.9
20260507052747 44 111 0.9 1.7 0.00 0.00 0.00 1 1014.8
20260507052243 44 120 1.7 3.5 0.00 0.00 0.00 1 1014.8
20260507051741 44 127 1.7 2.6 0.00 0.00 0.00 1 1014.9
20260507051237 44 121 1.7 2.6 0.00 0.00 0.00 1 1014.9
20260507050734 45 144 2.6 2.6 0.00 0.00 0.00 1 1015.0
20260507050231 45 135 1.7 2.6 0.00 0.00 0.00 1 1015.1
20260507045728 45 158 1.7 2.6 0.00 0.00 0.00 1 1015.0
20260507045224 45 150 1.7 2.6 0.00 0.00 0.00 1 1014.9
20260507044722 45 162 2.6 2.6 0.00 0.00 0.00 1 1015.2
20260507044218 45 142 1.7 3.5 0.00 0.00 0.00 1 1015.3
20260507043714 45 151 2.6 3.5 0.00 0.00 0.00 1 1015.1
20260507043211 44 150 2.6 3.5 0.00 0.00 0.00 1 1015.0
20260507042708 44 150 1.7 3.5 0.00 0.00 0.00 1 1015.5
20260507042202 45 162 1.7 3.5 0.00 0.00 0.00 1 1015.4
20260507041700 45 169 0.9 3.5 0.00 0.00 0.00 1 1015.4
20260507041156 45 146 0.0 2.6 0.00 0.00 0.00 1 1015.6
20260507040653 45 131 0.9 2.6 0.00 0.00 0.00 1 1015.7
20260507040150 45 147 1.7 2.6 0.00 0.00 0.00 1 1015.7
20260507035646 45 114 0.9 2.6 0.00 0.00 0.00 1 1015.8
20260507035142 45 123 0.9 1.7 0.00 0.00 0.00 1 1015.6
20260507034639 46 108 2.6 3.5 0.00 0.00 0.00 1 1016.0
20260507034136 45 105 2.6 3.5 0.00 0.00 0.00 1 1015.8
20260507033635 45 114 0.9 2.6 0.00 0.00 0.00 1 1015.9
20260507033131 46 112 3.5 4.3 0.00 0.00 0.00 1 1015.9
20260507032629 48 114 2.6 4.3 0.00 0.00 0.00 1 1016.0
20260507032125 49 104 2.6 2.6 0.00 0.00 0.00 1 1016.1
20260507031622 49 105 2.6 2.6 0.00 0.00 0.00 1 1016.2
20260507031118 50 94 1.7 2.6 0.00 0.00 0.00 1 1016.1
20260507030615 49 95 1.7 1.7 0.00 0.00 0.00 1 1016.2
20260507030113 49 286 0.0 0.0 0.00 0.00 0.00 1 1016.3
20260507025610 49 286 0.0 0.0 0.00 0.00 0.00 1 1016.1
20260507025107 50 286 0.0 0.0 0.00 0.00 0.00 1 1016.4
20260507024605 50 286 0.0 0.0 0.00 0.00 0.00 1 1016.2
20260507024102 50 286 0.0 0.0 0.00 0.00 0.00 1 1016.3
20260507023557 50 286 0.0 0.0 0.00 0.00 0.00 1 1016.3
20260507023055 51 286 0.0 0.0 0.00 0.00 0.00 1 1016.5
20260507022551 51 286 0.0 0.0 0.00 0.00 0.00 1 1016.2
20260507022046 51 286 0.0 0.9 0.00 0.00 0.00 1 1016.3
20260507021543 50 306 0.0 0.0 0.00 0.00 0.00 1 1016.4
20260507021040 50 15 0.0 1.7 0.00 0.00 0.00 1 1016.3
20260507020538 50 23 0.0 0.9 0.00 0.00 0.00 1 1016.3
20260507020034 50 315 0.0 0.0 0.00 0.00 0.00 1 1016.2
20260507015532 50 315 0.0 0.0 0.00 0.00 0.00 1 1016.4
20260507015029 50 294 0.0 0.9 0.00 0.00 0.00 1 1016.3
20260507014526 51 270 0.9 1.7 0.00 0.00 0.00 1 1016.2
20260507014021 51 32 0.0 1.7 0.00 0.00 0.00 1 1016.2
20260507013518 52 29 1.7 1.7 0.00 0.00 0.00 1 1016.3
20260507013016 51 297 1.7 2.6 0.00 0.00 0.00 1 1016.3
20260507012513 52 35 0.0 2.6 0.00 0.00 0.00 1 1016.2
20260507012009 52 303 1.7 2.6 0.00 0.00 0.00 1 1016.4
20260507011506 53 287 1.7 2.6 0.00 0.00 0.00 1 1016.3
20260507011002 53 345 0.0 2.6 0.00 0.00 0.00 1 1016.4
20260507010456 53 237 2.6 3.5 0.00 0.00 0.00 1 1016.3
20260507005954 54 330 0.0 6.1 0.00 0.00 0.00 1 1016.5
20260507005451 55 314 3.5 9.6 0.00 0.00 0.00 1 1016.7
20260507004947 55 263 2.6 6.1 0.00 0.00 0.00 1 1016.4
20260507004444 55 284 7.8 8.7 0.00 0.00 0.00 1 1016.5
20260507003942 55 270 4.3 7.0 0.00 0.00 0.00 1 1016.8
20260507003437 55 274 4.3 7.0 0.00 0.00 0.00 1 1016.8
20260507002932 55 288 2.6 5.2 0.00 0.00 0.00 1 1017.0
20260507002428 56 305 1.7 5.2 0.00 0.00 0.00 1 1016.9
20260507001926 55 296 4.3 9.6 0.00 0.00 0.00 1 1017.0
20260507001422 55 253 8.7 10.4 0.00 0.00 0.00 1 1017.0
20260507000920 56 4 3.5 7.0 0.00 0.00 0.00 1 1017.2
20260507000415 56 291 2.6 8.7 0.00 0.00 0.00 1 1017.2
20260506235911 56 298 7.8 10.4 0.00 0.00 0.00 1 1017.2
20260506235409 54 293 5.2 10.4 0.00 0.00 0.00 1 1017.2
20260506234904 53 259 8.7 10.4 0.00 0.00 0.00 1 1017.3
20260506234402 55 334 2.6 10.4 0.00 0.00 0.00 1 1017.2
20260506233900 56 301 1.7 5.2 0.00 0.00 0.00 1 1017.5
20260506233355 56 70 6.1 8.7 0.00 0.00 0.00 1 1017.5
20260506232852 56 287 8.7 11.3 0.00 0.00 0.00 1 1017.5
20260506232348 55 283 6.1 13.9 0.00 0.00 0.00 1 1017.7
20260506231844 54 347 4.3 14.8 0.00 0.00 0.00 1 1017.4
20260506231342 54 272 5.2 11.3 0.00 0.00 0.00 1 1017.5
20260506230839 56 350 3.5 9.6 0.00 0.00 0.00 1 1017.6
20260506230336 54 336 3.5 12.2 0.00 0.00 0.00 1 1017.6
20260506225832 55 260 4.3 11.3 0.00 0.00 0.00 1 1017.7
20260506225330 55 299 7.0 13.0 0.00 0.00 0.00 1 1017.6
20260506224827 55 278 7.8 13.0 0.00 0.00 0.00 1 1017.9
20260506224324 56 325 3.5 13.9 0.00 0.00 0.00 1 1017.8
20260506223820 55 267 7.8 13.9 0.00 0.00 0.00 1 1017.7
20260506223309 55 298 7.0 12.2 0.00 0.00 0.00 1 1018.0
20260506222807 55 294 10.4 14.8 0.00 0.00 0.00 1 1017.9
20260506222305 55 327 2.6 14.8 0.00 0.00 0.00 1 1018.0
20260506221801 53 293 5.2 7.8 0.00 0.00 0.00 1 1018.2
20260506221258 53 304 4.3 15.6 0.00 0.00 0.00 1 1018.2
20260506220755 54 336 8.7 13.0 0.00 0.00 0.00 1 1018.2
20260506220250 56 345 4.3 7.8 0.00 0.00 0.00 1 1018.2
20260506215747 55 0 6.1 16.5 0.00 0.00 0.00 1 1018.2
20260506215242 53 303 7.0 16.5 0.00 0.00 0.00 1 1018.2
20260506214733 53 282 7.0 19.1 0.00 0.00 0.00 1 1018.4
20260506214231 54 294 6.1 15.6 0.00 0.00 0.00 1 1018.4
20260506213729 54 285 7.8 18.2 0.00 0.00 0.00 1 1018.4
20260506213226 54 248 14.8 17.4 0.00 0.00 0.00 1 1018.7
20260506212723 54 344 4.3 17.4 0.00 0.00 0.00 1 1018.6
20260506212218 56 275 3.5 12.2 0.00 0.00 0.00 1 1018.6
20260506211714 54 290 13.0 21.7 0.00 0.00 0.00 1 1018.8
20260506211210 53 267 7.0 13.0 0.00 0.00 0.00 1 1018.8
20260506210708 54 229 10.4 14.8 0.00 0.00 0.00 1 1018.8
20260506210204 54 289 5.2 14.8 0.00 0.00 0.00 1 1018.9
20260506205702 55 295 12.2 15.6 0.00 0.00 0.00 1 1019.1
20260506205156 55 93 2.6 8.7 0.00 0.00 0.00 1 1019.1
20260506204654 55 289 4.3 15.6 0.00 0.00 0.00 1 1019.1
20260506204151 55 334 2.6 7.0 0.00 0.00 0.00 1 1019.3
20260506203649 54 282 12.2 16.5 0.00 0.00 0.00 1 1019.4
20260506203146 53 263 18.2 21.7 0.00 0.00 0.00 1 1019.4
20260506202644 53 273 12.2 19.1 0.00 0.00 0.00 1 1019.5
20260506202140 53 263 6.1 13.9 0.00 0.00 0.00 1 1019.5
20260506201637 53 259 13.0 16.5 0.00 0.00 0.00 1 1019.8
20260506201133 52 258 7.0 18.2 0.00 0.00 0.00 1 1019.6
20260506200630 53 304 3.5 14.8 0.00 0.00 0.00 1 1019.7
20260506200127 53 285 6.1 14.8 0.00 0.00 0.00 1 1019.7
20260506195623 53 277 13.0 15.6 0.00 0.00 0.00 1 1019.7
20260506195120 52 269 10.4 17.4 0.00 0.00 0.00 1 1020.1
20260506194617 53 253 2.6 15.6 0.00 0.00 0.00 1 1019.9
20260506194113 52 307 7.0 21.7 0.00 0.00 0.00 1 1020.0
20260506193611 53 333 13.0 19.1 0.00 0.00 0.00 1 1019.8
20260506193108 52 260 6.1 19.1 0.00 0.00 0.00 1 1020.0
20260506192605 52 279 4.3 8.7 0.00 0.00 0.00 1 1020.0
20260506192101 53 251 23.5 25.2 0.00 0.00 0.00 1 1020.1
20260506191558 52 264 6.1 14.8 0.00 0.00 0.00 1 1020.2
20260506191053 52 294 13.9 18.2 0.00 0.00 0.00 1 1020.4
20260506190551 51 291 7.8 15.6 0.00 0.00 0.00 1 1020.5
20260506190048 51 281 11.3 20.0 0.00 0.00 0.00 1 1020.5
20260506185545 51 281 12.2 13.9 0.00 0.00 0.00 1 1020.5
20260506185042 53 71 2.6 10.4 0.00 0.00 0.00 1 1020.5
20260506184539 52 270 9.6 12.2 0.00 0.00 0.00 1 1020.7
20260506184036 50 266 7.0 21.7 0.00 0.00 0.00 1 1020.9
20260506183532 50 225 7.8 13.9 0.00 0.00 0.00 1 1020.8
20260506183029 51 324 9.6 20.9 0.00 0.00 0.00 1 1020.9
20260506182526 50 287 10.4 16.5 0.00 0.00 0.00 1 1021.0
20260506182023 51 259 10.4 13.9 0.00 0.00 0.00 1 1021.2
20260506181521 51 225 2.6 7.0 0.00 0.00 0.00 1 1021.2
20260506181018 50 294 7.0 20.0 0.00 0.00 0.00 1 1021.3
20260506180514 50 251 13.0 18.2 0.00 0.00 0.00 1 1021.3
20260506180011 51 226 10.4 18.2 0.00 0.00 0.00 1 1021.4
20260506175508 51 337 2.6 21.7 0.00 0.00 0.00 1 1021.3
20260506175004 50 286 13.0 17.4 0.00 0.00 0.00 1 1021.5
20260506174503 50 289 9.6 13.0 0.00 0.00 0.00 1 1021.6
20260506173958 48 262 9.6 14.8 0.00 0.00 0.00 1 1021.7
20260506173456 49 288 9.6 18.2 0.00 0.00 0.00 1 1021.8
20260506172952 49 290 14.8 23.5 0.00 0.00 0.00 1 1021.8
20260506172450 49 252 9.6 20.9 0.00 0.00 0.00 1 1021.7
20260506171946 49 290 9.6 15.6 0.00 0.00 0.00 1 1021.7
20260506171444 50 339 6.1 13.0 0.00 0.00 0.00 1 1021.8
20260506170941 48 248 8.7 15.6 0.00 0.00 0.00 1 1021.8
20260506170437 47 315 7.0 20.0 0.00 0.00 0.00 1 1022.0
20260506165931 48 319 10.4 18.2 0.00 0.00 0.00 1 1022.0
20260506165429 48 301 10.4 17.4 0.00 0.00 0.00 1 1022.4
20260506164924 47 312 6.1 16.5 0.00 0.00 0.00 1 1022.3
20260506164421 47 269 7.0 19.1 0.00 0.00 0.00 1 1022.3
20260506163920 47 302 13.0 21.7 0.00 0.00 0.00 1 1022.0
20260506163414 47 271 9.6 22.6 0.00 0.00 0.00 1 1022.0
20260506162909 47 268 11.3 15.6 0.00 0.00 0.00 1 1022.1
20260506162407 48 307 4.3 18.2 0.00 0.00 0.00 1 1022.3
20260506161904 47 331 4.3 13.0 0.00 0.00 0.00 1 1022.4
20260506161402 46 291 7.0 22.6 0.00 0.00 0.00 1 1022.5
20260506160859 46 246 9.6 17.4 0.00 0.00 0.00 1 1022.4
20260506160356 46 292 4.3 18.2 0.00 0.00 0.00 1 1022.4
20260506155854 46 261 5.2 14.8 0.00 0.00 0.00 1 1022.3
20260506155350 46 266 7.8 14.8 0.00 0.00 0.00 1 1022.5
20260506153508 45 302 4.3 16.5 0.00 0.00 0.00 1 1022.5
20260506153005 45 251 13.0 15.6 0.00 0.00 0.00 1 1022.5
20260506152502 45 331 3.5 12.2 0.00 0.00 0.00 1 1022.4
20260506152000 44 259 7.0 15.6 0.00 0.00 0.00 1 1022.5
20260506151458 43 248 4.3 11.3 0.00 0.00 0.00 1 1022.3
20260506150955 43 277 7.0 12.2 0.00 0.00 0.00 1 1022.5
20260506150450 44 294 4.3 8.7 0.00 0.00 0.00 1 1022.6
20260506145948 43 268 5.2 14.8 0.00 0.00 0.00 1 1022.8
20260506145444 42 223 6.1 12.2 0.00 0.00 0.00 1 1022.5
20260506144942 42 262 8.7 13.0 0.00 0.00 0.00 1 1022.8
20260506144438 42 272 7.8 13.0 0.00 0.00 0.00 1 1022.6
20260506143937 41 268 10.4 12.2 0.00 0.00 0.00 1 1022.7
20260506143433 41 289 7.8 13.9 0.00 0.00 0.00 1 1022.8
20260506142932 41 250 10.4 13.9 0.00 0.00 0.00 1 1022.7
20260506142429 40 269 8.7 15.6 0.00 0.00 0.00 1 1022.5
20260506141927 40 263 9.6 13.9 0.00 0.00 0.00 1 1022.6
20260506141425 39 273 9.6 12.2 0.00 0.00 0.00 1 1022.6
20260506140923 39 281 7.0 9.6 0.00 0.00 0.00 1 1022.8
20260506140420 38 248 3.5 7.8 0.00 0.00 0.00 1 1022.7
20260506135917 37 229 5.2 11.3 0.00 0.00 0.00 1 1022.6
20260506135414 36 252 5.2 9.6 0.00 0.00 0.00 1 1022.6
20260506134910 35 221 7.0 9.6 0.00 0.00 0.00 1 1022.7
20260506134406 35 288 7.0 7.8 0.00 0.00 0.00 1 1022.5
20260506133903 34 233 6.1 9.6 0.00 0.00 0.00 1 1022.6
20260506133400 33 239 6.1 9.6 0.00 0.00 0.00 1 1022.7
20260506132856 33 239 8.7 9.6 0.00 0.00 0.00 1 1022.5
20260506132354 32 254 8.7 11.3 0.00 0.00 0.00 1 1022.6
20260506131852 32 258 7.0 9.6 0.00 0.00 0.00 1 1022.7
20260506131348 31 258 5.2 7.8 0.00 0.00 0.00 1 1022.6
20260506130845 30 232 5.2 9.6 0.00 0.00 0.00 1 1022.7
20260506130341 30 248 4.3 7.8 0.00 0.00 0.00 1 1022.6
20260506125839 30 257 5.2 9.6 0.00 0.00 0.00 1 1022.5
20260506125338 29 240 6.1 9.6 0.00 0.00 0.00 1 1022.4